This is the latest recevied weather packets stored in our database for station/object YU7OR-2. If no packets are shown the sender has not sent any weather packets the latest 10 day(s).
| Time | Temp. | Humidity | Pressure | Rain* | Wind** | Luminosity | Snow |
|---|---|---|---|---|---|---|---|
| 1777918354 | 20.56° C | 47% | 1013 hPa | 0 mm | - | - | - |
| 1777918098 | 20.56° C | 46% | 1013.1 hPa | 0 mm | - | - | - |
| 1777917837 | 21.11° C | 46% | 1013.2 hPa | 0 mm | - | - | - |
| 1777917557 | 21.67° C | 46% | 1013.1 hPa | 0 mm | - | - | - |
| 1777917279 | 21.67° C | 46% | 1013.2 hPa | 0 mm | - | - | - |
| 1777917009 | 22.22° C | 46% | 1013.2 hPa | 0 mm | - | - | - |
| 1777916709 | 22.22° C | 45% | 1013.3 hPa | 0 mm | - | - | - |
| 1777916449 | 22.22° C | 44% | 1013 hPa | 0 mm | - | - | - |
| 1777916199 | 22.22° C | 44% | 1013 hPa | 0 mm | - | - | - |
| 1777915954 | 22.78° C | 45% | 1013 hPa | 0 mm | - | - | - |
| 1777915679 | 23.33° C | 45% | 1012.9 hPa | 0 mm | - | - | - |
| 1777915439 | 23.33° C | 45% | 1012.9 hPa | 0 mm | - | - | - |
| 1777915159 | 23.33° C | 44% | 1013.2 hPa | 0 mm | - | - | - |
| 1777914884 | 23.89° C | 45% | 1013 hPa | 0 mm | - | - | - |
| 1777914634 | 23.89° C | 45% | 1013.1 hPa | 0 mm | - | - | - |
| 1777914334 | 23.89° C | 45% | 1013.1 hPa | 0 mm | - | - | - |
| 1777914079 | 23.89° C | 45% | 1013.1 hPa | 0 mm | - | - | - |
| 1777913789 | 24.44° C | 45% | 1013.1 hPa | 0 mm | - | - | - |
| 1777913489 | 25° C | 44% | 1013.3 hPa | 0 mm | - | - | - |
| 1777913209 | 25° C | 44% | 1013.3 hPa | 0 mm | - | - | - |
| 1777912944 | 25° C | 44% | 1013.3 hPa | 0 mm | - | - | - |
| 1777912649 | 25° C | 44% | 1013.3 hPa | 0 mm | - | - | - |
| 1777912409 | 25° C | 44% | 1013.5 hPa | 0 mm | - | - | - |
| 1777912144 | 25° C | 43% | 1013.4 hPa | 0 mm | - | - | - |
| 1777911884 | 24.44° C | 43% | 1013.5 hPa | 0 mm | - | - | - |
* Rain latest hour (hover to see other rain measurements)
** Current wind speed in m/s (hover to see current wind gust speed)